Find Starlink 31967

NORAD ID: 60021 Int'l Des: 2024-111 Owner: SPXS Country: US Constellation: starlink operational
LEOCIRCULAR

リアルタイム位置

3D地球を読み込み中...

Starlink 31967について

説明を読み込み中...

次回通過

Passes for default location (London). Set your location on the main map for personalized predictions.

高度履歴

Loading altitude history...

軌道要素

1 60021U 24111F 26126.50382669 -.00002823 00000-0 -72493-4 0 9990
2 60021 53.1604 166.4774 0001304 90.7921 269.3231 15.34376114107909
Epoch: May 6, 2026 • Age: 10 hours

現在のステータス

高度 462.7 km
速度 7.64 km/s
衛星直下点 18.08°N, 133.36°E
打ち上げ日 Jun 8, 2024
運用期間 1.9 years
タイプ internet

技術仕様

分類 Payload
質量 730.00 kg
乾燥質量 700.00 kg
総質量 730.00 kg
長さ 0.30 m
直径 4.10 m
スパン 29.00 m
形状 Box + pan
製造者 SPXS
バスタイプ Starlink V2M
フェーズステータス In Orbit
所有者/国 SPXS/US

Most Searched